ASTRA 1G
1 25071U 97076A   03023.00000000  .00000124  00000-0  10000-3 0  3885
2 25071   0.0122 319.8851 0002995  65.1991 116.0322  1.00273184 18878
INMARSAT 3-F5
1 25153U 98006B   03033.84014821 +.00000132 +00000-0 +10000-3 0 08399
2 25153 000.4540 357.6354 0004422 320.4223 141.9777 01.00274469018347
HOT BIRD 4
1 25237U 98013A   03013.80550721  .00000107  00000-0  10000-3 0  3250
2 25237   0.0242 116.4838 0007929 193.6371 105.7449  1.00276095 18185
NOAA 15
1 25338U 98030A   03034.98570510  .00000167  00000-0  91024-4 0  9945
2 25338  98.5501  57.5306 0010837   4.5698 355.5579 14.24237399245721
RESURS O1-N4
1 25394U 98043A   03034.94934045 +.00000111 +00000-0 +67557-4 0 04425
2 25394 098.6354 113.1479 0002055 128.4262 231.7101 14.23871766237454
TMSAT
1 25396U 98043C   03034.98606812 -.00000043 +00000-0 +00000-0 0 09672
2 25396 098.6292 112.3756 0003110 155.8436 204.2892 14.23506266237458
TECHSAT 1B
1 25397U 98043D   03034.93190497 +.00000079 +00000-0 +54489-4 0 01118
2 25397 098.6229 111.2250 0001653 151.6895 208.4367 14.22956594237410
ASTRA 2A
1 25462U 98050A   03023.69277567  .00000000  00000-0  10000-3 0  5291
2 25462   0.0332  23.2945 0014243 166.1651 210.9165  1.00270553 16187
EUTELSAT W2
1 25491U 98056A   03029.00266876  .00000099  00000-0  00000+0 0  5711
2 25491   0.0278 124.8124 0003697 176.6640 203.3209  1.00274433 15848
HOT BIRD 5
1 25495U 98057A   03031.82481701  .00000145  00000-0  00000+0 0  4963
2 25495   0.0130 168.2589 0004110 139.7195 152.6358  1.00273064 15842
SEDSAT 1
1 25509U 98061B   03035.52434975  .00000803  00000-0  14813-3 0  7714
2 25509  31.4280 232.4880 0357615 180.2891 179.7558 14.27410784223304
PAN SAT
1 25520U 98064B   03035.12159428  .00002854  00000-0  14370-3 0  6358
2 25520  28.4591 320.0733 0005603 192.0350 168.0105 15.13803763235397
ISS (ZARYA)
1 25544U 98067A   03035.53006944  .00035688  00000-0  43247-3 0  6554
2 25544  51.6376 326.5388 0005499 111.3609 223.6484 15.60277624240301
ORSTED
1 25635U 99008B   03035.05420561  .00000876  00000-0  22893-3 0  8235
2 25635  96.4487  24.7613 0146335  15.6556 344.9088 14.44806911207849
SUNSAT
1 25636U 99008C   03034.94702544 +.00000443 +00000-0 +12357-3 0 06813
2 25636 096.4515 023.3672 0150183 022.2588 338.5035 14.42937240207701
UOSAT 12
1 25693U 99021A   03035.46088469  .00000300  00000-0  62764-4 0  6766
2 25693  64.5594  53.9688 0018838 316.6302  43.3317 14.76369668204179
FENGYUN 1C
1 25730U 99025A   03034.98207866 -.00000027 +00000-0 +81380-5 0 07643
2 25730 098.6348 059.9296 0015142 046.6069 313.6362 14.11731578192577
ASTRA 1H
1 25785U 99033A   03023.00000000  .00000123  00000-0  10000-3 0  3690
2 25785   0.0122 319.8851 0002995  65.1991 116.0174  1.00273184 13230
TERRA
1 25994U 99068A   03035.23561324  .00000484  00000-0  11753-3 0  6654
2 25994  98.2017 111.6764 0001037  60.7346 299.3956 14.57113560166583
JAWSAT
1 26061U 00004A   03034.54812949  .00000454  00000-0  16915-3 0  7560
2 26061 100.2103  88.8287 0034784 322.5992  37.2769 14.37805483158374
OPAL
1 26063U 00004C   03034.70894390  .00000122  00000-0  62647-4 0  7139
2 26063 100.2151  86.5921 0037155 329.1654  30.7343 14.35474335158251
ASUSAT
1 26065U 00004E   03035.50249720  .00000171  00000-0  79596-4 0  7259
2 26065 100.2118  87.6751 0037045 328.0685  31.8250 14.35502040158365
GOES 11
1 26352U 00022A   03035.38000563 -.00000041  00000-0  10000-3 0    67
2 26352   0.1049 104.4860 0003750 217.6297 195.7412  1.00263514 10097
EUTELSAT W4
1 26369U 00028A   03028.81856696  .00000150  00000-0  00000+0 0  3481
2 26369   0.0297  41.0424 0009627 313.4883 103.8214  1.00274845  9846
FENGYUN 2B
1 26382U 00032A   03034.59253036 -.00000335  00000-0  00000+0 0  7831
2 26382   0.5983 286.7957 0001645 202.4043 321.4079  1.00277344  9567
EUTELSAT W1
1 26487U 00052A   03032.84759476  .00000058  00000-0  10000-3 0  3500
2 26487   0.0132 253.0304 0004193 328.4501 225.2537  1.00272552  8853
ASTRA 2B
1 26494U 00054A   03023.00000000  .00000154  00000-0  00000+0 0  2523
2 26494   0.0178 354.5658 0005000 302.8402 212.7100  1.00276704  8652
NOAA 16
1 26536U 00055A   03034.55832330 -.00000048  00000-0 -19377-5 0  1933
2 26536  98.9002 342.9540 0010459 353.0099   7.0979 14.11892210122036
SAUDISAT 1A
1 26545U 00057A   03035.21064640  .00001314  00000-0  19296-3 0  4071
2 26545  64.5588  76.0528 0053024 241.1905 118.3857 14.78941166127093
UNISAT
1 26547U 00057C   03035.20436359  .00002070  00000-0  28584-3 0  4263
2 26547  64.5575  78.3617 0060238 243.4520 116.0378 14.79680614127067
TIUNGSAT 1
1 26548U 00057D   03034.58015341  .00001647  00000-0  22571-3 0  4100
2 26548  64.5575  71.0459 0046340 240.2881 119.3597 14.81215836127146
SAUDISAT 1B
1 26549U 00057E   03035.23641423  .00001076  00000-0  16490-3 0  6831
2 26549  64.5544  80.0136 0057449 241.3698 118.1618 14.77879558127025
AMSAT OSCAR 40
1 26609U 00072B   03034.31137944 -.00000179  00000-0  10000-3 0  3091
2 26609   8.0492  66.9657 7939320 139.8206 319.3106  1.25596473 10397
GOES 12
1 26871U 01031A   03034.51795689 -.00000145  00000-0  10000-3 0  8038
2 26871   0.3647 276.7255 0003242   0.5431 303.0391  1.00363255  5687
PCSAT
1 26931U 01043C   03035.52833019  .00000157  00000-0  94473-4 0  3933
2 26931  67.0483 291.7610 0005080 262.8363  97.2167 14.29107182 70341
SAPPHIRE
1 26932U 01043D   03035.57811487  .00000089  00000-0  67292-4 0  3881
2 26932  67.0563 291.3413 0005471 239.6795 120.3766 14.29288562 70371
ENVISAT
1 27386U 02009A   03035.43330316  .00000181  00000-0  83292-4 0  9089
2 27386  98.5460 104.1870 0000925  96.6990 263.4300 14.32252171 48723
IDEFIX/ARIANE 42P
1 27422U 02021B   03034.95788355 +.00000198 +00000-0 +97865-4 0 02284
2 27422 098.6966 114.2258 0012584 188.6079 171.4887 14.27960939039373
FENGYUN 1D
1 27431U 02024B   03035.53604587  .00000074  00000-0  67106-4 0  2071
2 27431  98.7711  84.8925 0015742 161.6194 198.5549 14.09177394 37393
NOAA 17
1 27453U 02032A   03034.94334990  .00000228  00000-0  12031-3 0  2927
2 27453  98.7605 106.2307 0012506  42.1303 318.0834 14.23283580 31887
HOT BIRD 6
1 27499U 02038A   03013.80550721  .00000106  00000-0  10000-3 0   665
2 27499   0.0928  32.8693 0008090 290.3889  92.5421  1.00271722  1476
RUBIN 2
1 27605U 02058A   03035.03485572 -.00000573  00000-0 -70040-4 0   465
2 27605  64.5560 241.3707 0028855 116.9236 243.4813 14.71391003  6671
